Simultaneous Nadir Overpasses (SNOs) Predictions

Prediction of SNOs between GOES-17 and NOAA-19 Satellite Orbit:

Table of predicted SNOs for the next 14.0 days since TLE Epoch: 12/13/2019
Index Date Time (GOES-17) GOES-17 Lat,Lon NOAA-19 Lat,Lon Distance(km) Time Diff (sec)
1 12/14/2019 14:22:54 0.04,-137.22 -0.47,-134.95 259.14 80
2 12/17/2019 02:46:39 -0.04,-137.21 -0.65,-139.94 311.12 80
3 12/18/2019 02:32:19 -0.04,-137.21 -0.01,-137.09 13.66 80
4 12/19/2019 02:20:40 -0.04,-137.21 0.63,-134.24 338.24 80
5 12/21/2019 14:44:23 0.05,-137.21 0.49,-139.23 229.95 80
6 12/22/2019 14:30:04 0.05,-137.20 -0.17,-136.38 94.42 80
7 12/23/2019 14:18:24 0.05,-137.19 -0.82,-133.53 418.55 80
8 12/25/2019 02:53:49 -0.06,-137.16 -1.03,-141.36 478.99 80
9 12/26/2019 02:42:09 -0.06,-137.15 -0.38,-138.51 155.32 80
10 12/27/2019 02:27:50 -0.07,-137.13 0.26,-135.66 168.26 80




NCC Satellite Simultaneous Nadir Overpasses (SNOs) Prediction Service
